RH
80 86 84 79 75 62 40 23 14 11 11 11 12 27 53 70 60 44 55 78 86 81 78 87 98 99 99 97 92 87 88 91 95 95 92 96 100 99 96 95 98 97 93 79 54 51 59 58 57 57 58 56 47 40 36 36 36 38 44 51 56 57
84 86 83 80 73 55 35 22 16 12 13 16 19 30 43 49 45 40 55 75 81 74 72 87 98 100 97 93 92 92 92 95 98 97 96 99 99 97 93 94 98 93 91 82 57 49 56 56 55 58 63 65 58 49 41 37 36 37 42 48 54 58
80 88 90 86 73 53 35 22 16 13 15 23 28 31 33 33 33 40 55 72 79 70 66 82 92 95 96 93 94 93 93 97 97 95 97 100 96 94 95 98 97 90 89 81 61 49 51 54 53 56 64 71 69 61 52 44 37 37 39 43 49 54
81 94 95 86 73 55 36 22 15 12 15 24 29 31 33 30 29 42 59 66 69 66 66 78 88 95 95 90 88 88 91 96 97 94 94 95 96 96 100 100 94 89 84 72 59 48 45 49 49 51 59 68 71 68 62 52 44 38 36 40 44 47
87 96 95 86 72 53 36 25 17 12 16 24 30 34 36 33 30 37 54 60 58 64 76 84 90 95 92 88 88 90 94 95 94 93 93 96 99 99 99 97 89 83 72 61 58 51 45 45 44 45 49 56 62 64 63 57 50 42 36 36 41 45
94 97 93 81 64 49 37 27 20 18 23 28 28 32 35 35 33 33 45 57 61 68 79 88 91 90 89 90 95 96 96 96 93 94 98 99 97 97 97 91 81 74 65 60 62 59 52 48 45 43 42 45 48 51 54 55 51 46 40 35 36 42
96 93 82 69 56 49 41 26 21 23 20 17 17 26 37 41 41 41 45 53 60 66 74 81 84 86 92 96 99 98 96 96 94 94 98 98 98 98 92 81 74 70 62 62 67 63 58 53 49 48 46 44 43 42 45 48 49 46 43 38 35 37
89 83 75 69 62 56 42 23 23 30 21 15 23 37 49 54 57 55 57 65 68 70 70 69 73 86 98 100 98 96 95 96 94 94 97 100 100 92 81 74 71 66 60 66 72 65 57 50 45 49 54 55 51 46 43 43 45 43 42 40 37 35
82 79 76 73 71 61 44 31 35 45 41 36 42 51 57 62 69 69 70 79 79 74 69 65 75 92 100 100 97 94 93 95 96 98 100 99 93 82 75 72 66 60 57 64 69 64 55 42 35 43 54 59 60 55 48 44 43 41 41 41 39 36
80 79 76 75 76 64 48 43 46 56 63 66 70 69 69 71 76 83 83 83 81 78 77 77 84 93 96 99 99 96 94 96 99 100 99 94 86 79 74 68 61 54 48 47 50 55 54 39 30 40 50 57 62 59 53 48 44 43 43 42 40 38
80 79 76 76 77 68 55 46 43 53 63 76 88 84 84 85 83 91 90 82 79 80 83 86 91 94 98 101 100 99 97 98 100 97 93 87 82 77 71 65 57 48 38 34 39 50 57 43 29 37 46 52 60 60 57 52 49 48 46 44 42 39
67 70 78 79 78 69 54 47 49 56 58 70 85 83 87 93 91 94 90 81 78 80 87 91 94 98 100 100 99 99 99 100 99 93 89 85 79 73 68 62 52 44 36 39 52 63 67 51 33 36 42 48 55 58 58 56 55 55 52 50 46 44
54 62 78 80 74 65 54 57 63 60 58 67 76 73 75 82 89 94 90 87 83 84 93 96 97 100 99 98 99 100 99 99 97 92 89 82 74 69 64 57 48 41 36 44 64 78 81 63 41 39 46 52 54 53 55 56 59 59 57 56 53 51
52 54 70 69 62 60 56 57 54 49 53 65 72 70 66 66 78 88 85 86 85 87 97 100 99 100 99 100 100 100 99 99 97 91 87 78 70 65 59 52 41 39 48 64 78 88 91 72 51 50 55 58 53 48 53 58 61 61 62 62 57 54
49 46 55 56 54 56 55 49 43 41 49 58 62 60 58 60 71 82 81 80 79 84 95 98 97 97 99 101 101 101 100 97 90 84 80 71 65 61 54 47 39 43 65 80 87 95 95 76 63 62 62 67 60 47 50 57 57 59 69 70 63 60
45 41 43 45 50 54 54 48 41 37 41 48 54 57 61 65 73 84 84 75 70 75 84 88 89 94 100 101 98 96 91 85 79 74 70 63 60 59 53 47 41 46 62 74 87 99 94 80 71 68 68 78 71 49 44 51 54 62 74 76 72 73
41 33 32 36 43 47 48 44 37 33 35 44 61 74 77 77 82 90 83 68 63 67 74 79 84 93 97 96 91 85 80 77 73 68 63 61 61 58 54 51 48 53 59 67 90 100 91 81 71 63 64 70 64 47 44 52 61 70 76 77 78 80
42 33 28 28 30 34 39 41 38 33 30 37 57 75 79 81 85 83 70 58 58 66 74 80 85 90 93 93 90 86 83 80 75 66 63 62 58 53 53 54 55 61 60 69 94 101 91 83 72 63 59 58 55 49 50 58 69 78 79 78 79 80
44 40 32 26 23 24 28 36 39 35 29 28 39 55 65 70 70 63 55 53 58 67 74 78 82 88 91 92 91 88 83 76 68 62 62 58 49 45 48 49 51 58 59 69 94 101 95 87 75 68 61 58 57 54 54 57 64 74 76 73 75 77
40 44 40 32 25 22 23 28 34 35 32 28 27 34 41 46 48 49 53 56 60 66 70 74 79 82 82 81 78 74 66 58 53 54 56 50 41 42 47 46 45 51 52 59 83 98 100 94 81 75 72 68 67 61 56 48 46 53 55 53 58 58
38 46 47 40 31 26 25 26 30 32 32 31 28 26 27 33 42 50 56 59 60 62 66 71 74 71 67 62 53 46 41 40 42 43 41 36 32 37 47 48 41 40 40 47 76 98 101 98 91 88 85 80 74 63 54 44 34 34 34 32 34 33
34 43 49 45 35 29 27 28 32 36 35 33 30 27 27 35 47 54 58 60 60 62 66 68 65 57 49 39 32 27 23 24 29 30 27 25 24 27 39 47 38 28 29 42 68 89 97 99 96 94 90 86 79 66 57 49 35 27 27 27 26 25
35 41 47 45 38 33 31 34 41 44 42 38 33 32 32 38 48 56 60 62 60 59 58 54 49 43 37 31 30 30 22 16 18 19 20 20 19 21 28 40 38 26 25 38 55 68 81 86 85 85 85 84 81 73 68 63 47 35 35 37 36 32
43 49 50 47 42 38 36 41 48 49 47 44 41 40 41 45 53 57 60 63 57 51 48 46 48 50 50 48 46 44 37 29 22 16 15 17 19 19 20 28 35 30 25 34 47 56 65 69 69 71 71 73 75 71 69 70 62 50 46 48 46 37
44 51 52 51 47 43 41 42 47 50 52 50 49 49 49 52 55 52 56 64 61 56 54 55 60 62 61 60 56 53 50 45 37 26 19 17 18 19 19 23 30 30 25 29 43 55 59 59 61 59 57 64 70 65 60 63 65 58 52 51 46 38
40 45 49 51 49 46 44 43 45 48 50 52 53 52 53 54 51 51 60 71 71 69 68 64 65 64 61 59 56 53 51 49 45 39 31 26 24 22 21 25 29 29 26 30 43 54 52 47 47 45 47 58 63 58 54 55 59 59 54 48 42 34
42 44 47 49 48 45 45 46 48 51 54 56 57 57 57 55 56 64 73 76 74 71 68 64 61 59 56 54 52 50 49 47 45 43 41 37 32 28 26 29 34 34 33 36 43 49 46 39 35 36 42 51 51 49 48 50 55 57 50 40 30 23
49 47 47 48 48 46 45 47 50 55 58 59 60 61 57 57 67 75 73 69 66 63 60 57 55 52 50 48 46 46 46 45 43 41 41 39 34 31 29 30 33 31 29 31 35 38 39 34 30 34 42 45 45 46 47 50 53 49 36 24 18 14
51 45 44 47 50 50 50 51 53 54 54 55 58 58 55 62 73 74 70 70 65 61 59 56 53 50 47 44 42 42 42 41 40 37 35 33 30 28 25 23 22 20 19 22 26 29 31 31 31 40 52 53 47 43 42 41 37 28 18 13 12 11
51 45 47 50 53 55 54 53 54 54 54 55 59 60 59 69 77 77 80 81 72 65 60 53 49 46 44 43 41 39 38 37 36 34 32 30 26 24 22 20 19 17 16 17 20 20 20 24 28 36 47 47 36 27 24 21 17 13 11 10 11 10
50 49 52 54 55 54 54 54 57 61 62 62 64 67 67 71 78 82 84 82 75 66 55 46 44 42 41 42 40 37 35 34 34 32 30 29 25 23 22 23 23 22 22 21 20 18 16 17 19 20 24 25 21 17 15 13 12 12 11 11 11 12
51 55 56 56 55 53 55 60 65 66 65 66 67 69 70 71 75 80 82 80 74 61 47 42 42 40 39 39 38 37 35 32 32 31 30 28 26 24 23 23 24 24 24 24 22 20 18 15 14 14 15 16 18 18 16 14 13 12 12 13 12 13
56 57 56 54 52 53 57 64 65 62 61 64 67 68 68 69 73 79 79 77 67 52 42 38 35 32 31 31 32 34 35 33 31 29 29 28 26 25 24 24 24 23 22 22 21 20 19 18 17 16 16 18 19 18 16 14 14 13 13 13 13 13
60 58 56 53 51 51 54 57 56 53 54 58 62 64 65 67 72 75 69 63 55 45 38 33 30 32 35 35 33 31 32 34 32 29 30 31 30 29 29 29 29 29 28 28 28 27 27 26 25 22 21 21 20 18 17 16 15 14 14 13 13 13
62 60 59 56 54 52 51 51 50 51 54 57 59 60 64 67 68 62 54 50 49 46 42 40 42 46 46 44 42 38 34 34 34 33 31 31 30 27 26 26 26 27 29 31 33 35 35 34 31 27 24 22 20 18 17 17 16 14 13 13 12 11
66 66 67 64 60 56 54 54 57 61 64 64 61 57 59 62 62 58 54 54 58 59 57 56 56 51 44 40 40 42 41 38 37 37 36 34 31 28 26 26 25 25 26 29 34 39 42 42 39 33 26 21 18 17 16 15 14 13 12 11 11 11
75 77 77 75 69 63 61 62 63 63 62 60 59 59 57 57 60 63 64 66 69 68 65 61 54 44 36 32 34 41 45 44 41 39 39 37 35 33 32 31 31 31 33 37 43 47 50 50 49 44 36 26 18 13 12 12 11 11 10 10 10 10
Wind_Speed
25 25 25 24 24 24 25 25 24 23 23 22 22 21 20 21 22 21 22 22 22 23 22 21 20 19 18 18 18 18 18 18 19 19 19 17 17 17 16 18 20 17 12 9 5 6 10 12 14 14 13 11 11 11 10 9 8 8 8 9 9 10
25 25 24 24 24 24 25 25 24 23 23 22 21 21 21 22 22 21 22 23 23 23 21 20 20 19 20 20 19 18 19 20 20 21 22 21 19 17 17 19 20 16 13 9 6 7 9 12 14 14 14 12 11 11 11 9 9 9 9 10 11 11
25 25 24 23 24 24 25 25 24 23 22 21 21 21 21 21 21 21 22 22 23 22 21 21 21 20 21 21 20 20 20 20 20 22 23 23 20 17 18 20 19 15 12 10 8 8 9 12 14 15 15 13 12 12 11 10 10 10 11 11 12 13
25 24 24 23 24 25 25 25 25 24 22 21 21 21 20 20 21 21 21 22 23 23 22 23 22 20 21 20 20 21 21 21 21 21 19 18 19 19 20 20 18 14 11 9 9 9 11 14 15 16 16 15 14 13 12 12 12 12 12 13 13 14
25 25 24 23 24 24 25 25 24 24 22 21 20 20 20 20 21 21 21 22 23 23 23 22 21 20 21 21 20 21 21 20 19 17 16 18 21 21 20 19 16 14 11 10 10 10 12 15 16 17 17 16 16 15 14 13 14 14 14 14 15 15
26 25 23 22 23 23 24 24 23 22 21 20 20 20 21 21 21 22 22 22 23 23 22 21 20 20 21 20 19 19 20 19 19 18 19 23 23 21 18 16 15 14 12 12 11 10 12 14 16 17 17 17 16 16 16 15 15 15 15 16 17 17
22 22 21 22 22 23 23 23 22 21 20 20 20 20 21 20 20 21 21 22 24 23 22 22 21 21 21 19 18 18 19 19 20 21 22 23 21 18 15 15 15 14 14 13 11 10 11 13 14 15 16 16 16 17 17 16 16 17 17 17 18 18
19 20 21 21 21 22 21 20 19 19 19 19 19 19 19 19 20 20 19 21 22 22 22 22 22 21 20 18 18 18 19 19 19 20 19 17 15 14 14 15 15 15 14 13 11 10 11 12 12 13 15 15 16 17 17 17 17 18 18 19 19 19
20 21 22 21 20 19 18 17 17 17 17 18 19 18 18 18 19 19 19 21 21 22 22 22 21 20 19 19 20 19 18 17 15 15 14 13 12 12 14 15 15 15 14 13 12 10 11 11 10 11 12 14 15 16 17 17 18 18 19 20 20 19
20 21 21 21 19 18 17 15 15 15 16 17 17 18 18 17 18 19 20 21 21 21 20 20 20 19 20 20 20 18 15 13 13 12 11 10 11 13 14 15 15 15 14 14 13 12 11 11 10 9 11 13 14 15 16 16 17 18 19 20 19 19
16 17 18 18 18 18 17 15 14 15 15 15 15 15 15 15 17 20 20 21 21 19 19 20 19 19 19 19 17 14 12 12 12 10 9 10 12 14 15 15 14 14 14 14 13 12 11 10 10 10 10 12 13 14 14 15 16 17 18 18 18 17
14 15 15 15 16 17 16 13 13 14 14 14 13 12 12 14 18 20 20 20 19 18 19 19 18 17 17 15 13 12 12 13 11 9 9 10 12 14 14 13 13 13 14 14 13 11 9 9 10 11 11 12 12 12 12 13 14 16 16 16 16 16
13 13 11 12 13 14 12 10 10 11 12 12 12 12 13 15 16 17 17 18 18 18 18 17 16 14 13 12 12 12 13 13 11 9 9 11 12 13 13 12 13 13 14 14 12 11 10 9 11 12 12 11 10 11 12 13 13 14 15 15 16 16
14 11 9 9 10 10 9 9 10 11 12 13 13 14 15 16 15 16 17 17 16 14 13 14 13 12 11 10 10 12 13 13 11 9 10 11 12 12 12 11 12 12 12 13 12 12 10 10 11 12 11 10 9 11 13 13 13 13 13 13 14 15
14 11 8 9 9 9 10 10 11 12 12 13 15 16 17 18 17 16 14 11 9 8 9 10 9 8 9 10 10 11 12 11 9 9 9 11 11 11 11 11 12 12 11 11 11 11 10 11 11 10 10 10 10 12 13 13 13 12 11 11 13 14
13 11 10 10 9 9 9 9 9 12 13 14 15 15 17 17 16 13 10 7 6 7 7 8 8 8 9 10 10 10 10 9 8 9 9 10 10 10 11 11 12 11 11 11 10 10 10 11 10 8 9 9 9 10 11 12 13 12 11 11 12 13
13 11 11 10 9 10 9 8 9 11 13 15 14 13 14 13 12 12 11 9 8 8 8 9 9 9 10 10 11 11 10 10 9 9 9 10 10 10 11 11 11 10 10 11 10 10 10 11 11 9 11 10 8 8 9 10 11 12 12 11 12 12
12 11 11 10 10 11 10 10 11 12 14 15 15 14 13 12 12 12 12 11 10 9 9 10 10 10 11 11 12 12 12 11 10 9 10 10 10 10 10 11 10 9 9 9 9 11 11 12 11 10 12 11 9 8 9 10 12 13 12 12 11 11
13 12 11 11 11 11 12 13 14 15 15 15 15 15 14 13 13 14 14 13 11 10 10 10 10 10 10 10 10 11 11 11 10 10 10 10 10 10 10 10 9 9 9 9 9 12 13 13 11 10 11 11 9 8 9 10 12 13 13 11 11 11
13 12 11 11 12 13 13 14 16 17 17 16 15 16 16 15 15 15 13 12 10 9 9 9 8 8 8 8 8 9 10 10 9 9 10 10 10 10 10 10 10 10 10 9 10 12 14 14 11 8 9 9 8 8 9 10 11 12 11 10 10 10
12 11 11 12 13 14 14 14 15 17 17 17 17 16 17 16 16 14 13 11 10 8 8 8 8 8 8 8 8 9 9 9 8 9 10 10 10 10 11 11 11 11 11 10 10 11 12 13 11 9 8 8 7 8 9 10 11 11 10 10 9 9
12 12 12 13 13 14 13 13 13 15 16 18 19 19 19 18 16 15 13 12 10 9 8 8 8 8 8 8 9 9 9 9 9 10 11 11 12 12 11 12 12 12 12 11 10 10 11 12 12 12 11 9 9 10 11 11 11 11 11 10 10 10
13 13 12 13 13 13 12 11 13 15 17 19 20 20 19 19 17 15 14 13 11 10 10 9 9 9 9 9 10 10 10 10 10 11 11 12 12 12 12 12 13 13 13 12 11 12 12 13 13 13 12 11 10 11 12 12 13 13 12 11 10 11
13 12 12 12 12 12 12 12 13 15 17 19 19 19 19 18 17 16 15 14 14 13 12 11 11 10 10 10 11 11 11 11 11 12 12 13 13 12 12 13 14 14 13 13 12 13 13 13 13 13 13 12 11 12 12 13 14 14 13 12 11 12
14 13 13 13 12 13 13 14 15 16 17 18 19 19 19 18 18 17 16 16 15 14 14 12 12 11 11 12 12 12 12 13 13 13 13 13 13 13 13 13 14 14 14 13 13 13 14 13 13 13 13 13 12 13 13 15 16 15 14 13 13 13
14 14 14 13 13 14 15 16 17 17 18 19 19 19 19 19 18 18 17 16 15 13 13 13 13 13 13 13 14 14 14 14 14 14 14 14 14 13 13 13 14 14 14 14 14 14 14 14 13 13 13 13 14 14 15 16 17 16 15 15 14 15
15 15 14 13 13 14 14 15 16 17 18 18 19 19 18 18 18 17 16 15 13 12 12 13 13 13 13 13 13 13 13 14 14 14 14 14 13 12 13 14 14 14 14 14 14 14 15 15 14 14 13 14 15 16 16 17 17 17 16 15 15 15
14 14 13 13 13 12 12 13 14 16 17 17 18 17 17 18 19 18 16 13 12 12 12 13 14 14 13 13 12 12 12 13 13 13 13 12 12 12 12 13 13 13 13 13 13 14 15 15 14 14 14 15 16 17 17 17 17 17 16 16 16 17
14 13 13 12 12 12 12 12 13 15 16 16 17 16 16 18 20 19 15 12 12 13 14 15 14 14 12 12 12 11 11 11 12 13 13 12 11 11 11 11 11 11 11 11 12 13 14 13 13 14 15 16 16 17 17 17 17 17 17 17 18 19
13 12 11 11 12 13 14 14 15 16 17 17 16 16 15 17 19 19 16 14 14 15 16 15 14 13 12 12 12 11 11 11 11 12 12 12 11 11 10 10 10 10 9 10 11 12 12 12 13 15 15 15 16 16 17 17 17 17 18 18 19 20
12 11 11 11 12 13 14 15 16 17 16 15 14 14 15 16 17 18 17 17 16 15 15 15 13 11 11 11 11 11 11 11 11 11 11 12 12 11 10 10 10 10 10 10 11 11 11 11 12 13 14 15 15 16 16 17 17 18 18 19 20 21
12 11 11 11 12 13 14 15 15 15 14 13 13 14 15 15 16 16 16 16 15 15 14 13 11 10 10 10 10 11 11 11 11 11 11 11 11 11 11 11 11 11 11 11 12 12 11 11 11 12 14 15 15 15 16 17 17 18 19 19 20 21
12 11 11 11 11 12 13 14 14 13 12 12 12 13 14 15 14 15 16 16 15 14 14 13 11 10 10 10 11 11 11 12 11 10 9 10 11 10 10 10 10 11 11 11 11 11 11 11 11 12 13 14 15 15 15 16 17 18 18 19 19 20
11 10 11 11 11 12 13 14 14 13 12 12 12 13 14 14 14 15 16 15 14 14 13 12 12 11 11 11 11 12 12 12 12 10 9 9 9 9 9 8 9 9 10 10 10 10 10 10 11 12 12 13 14 15 16 16 16 17 18 19 19 19
11 11 11 12 13 14 14 15 14 13 12 11 11 11 10 11 13 14 14 13 13 13 13 12 12 11 11 12 12 13 12 12 13 12 12 11 11 10 10 10 10 10 10 10 10 10 10 10 11 11 12 13 14 15 16 16 16 17 18 19 19 19
12 12 13 13 14 15 15 15 14 13 12 11 10 9 8 9 12 13 13 13 12 13 12 11 11 11 11 11 12 13 13 13 13 14 14 14 13 13 13 13 13 13 13 12 12 11 11 11 11 12 12 13 14 15 16 16 17 17 18 19 19 18
14 13 14 15 15 15 15 15 15 13 12 12 11 10 10 10 12 14 14 14 13 13 12 11 10 10 10 10 10 10 11 13 13 13 13 14 14 14 15 15 15 14 14 13 13 12 12 12 13 13 13 14 14 15 15 16 17 17 18 19 19 18
Wind_Direction
253 257 263 269 275 281 285 287 287 286 285 283 280 275 270 268 272 275 268 262 264 273 281 281 279 279 281 284 285 283 280 282 283 286 288 288 289 288 294 303 298 290 284 283 267 260 266 266 267 267 268 266 261 258 254 247 241 239 235 232 231 229
256 260 266 272 277 283 286 287 288 288 287 285 281 276 270 269 271 270 265 262 265 274 279 276 274 275 282 287 285 281 278 280 283 280 277 282 287 288 296 297 289 283 283 280 257 249 258 258 259 260 261 261 257 255 256 253 241 234 230 227 227 229
259 263 268 274 279 283 286 288 289 288 286 283 280 276 273 271 269 267 265 265 269 274 274 272 274 275 281 285 282 280 278 281 282 275 272 277 278 282 292 289 282 281 282 278 256 243 247 249 249 249 251 252 251 250 251 251 243 231 226 226 223 225
261 265 269 274 278 284 288 290 290 287 284 280 278 276 274 270 267 265 264 265 268 272 272 271 273 273 274 277 277 278 278 279 277 269 268 271 274 281 286 280 277 280 280 274 257 241 239 242 240 240 241 241 243 245 243 242 242 234 222 224 224 223
258 261 264 271 278 285 289 290 289 287 282 279 277 276 273 270 268 266 263 265 267 269 272 272 272 272 272 273 274 274 275 276 269 261 264 268 273 277 275 272 274 277 276 270 257 242 239 241 239 238 237 236 236 237 235 231 237 238 226 222 224 224
257 260 265 272 280 287 289 289 288 285 281 278 276 273 271 269 269 267 265 266 267 268 270 271 273 274 275 274 273 272 274 273 259 254 264 267 268 268 265 268 273 276 276 269 259 247 243 243 243 242 240 239 237 236 233 227 229 235 232 225 223 225
266 270 274 279 283 287 288 288 286 284 280 276 272 268 268 269 268 267 268 268 268 267 267 270 274 277 277 274 271 273 277 271 254 254 265 265 261 260 261 267 274 276 274 266 260 254 249 248 247 246 245 242 240 238 235 229 226 230 234 231 227 225
276 276 276 279 282 284 285 285 284 281 277 273 269 265 266 269 269 268 268 267 267 267 268 270 274 277 277 274 273 277 278 271 260 259 262 256 250 253 261 269 273 272 269 265 264 262 259 257 253 249 247 245 241 239 236 233 229 229 233 234 232 229
276 273 272 274 278 279 281 283 280 276 274 271 268 264 265 266 268 268 263 262 266 269 270 270 273 277 278 275 275 277 276 270 260 251 245 240 244 256 264 268 269 268 269 269 269 271 267 263 257 249 246 245 242 239 237 236 234 234 235 236 235 233
281 278 275 273 272 269 271 278 279 275 274 275 267 264 267 266 266 265 261 262 266 269 270 271 273 277 279 275 271 271 267 253 240 234 235 240 250 259 263 264 265 268 271 272 272 273 269 264 256 247 244 243 242 240 238 238 239 239 238 238 238 238
292 291 285 278 270 263 263 271 277 273 274 276 266 262 267 266 265 264 265 269 269 270 272 272 272 274 275 270 265 260 247 232 227 229 236 246 254 259 261 262 265 269 273 275 275 270 265 264 256 246 243 242 241 241 241 242 242 243 242 243 244 245
307 306 294 279 267 259 258 263 269 269 272 272 264 263 261 256 262 266 267 268 268 272 275 274 272 270 265 256 249 240 230 224 223 230 240 249 255 257 259 262 266 271 273 276 276 268 263 262 254 249 247 243 242 243 244 244 244 246 247 247 247 246
315 318 299 276 264 257 250 248 256 264 267 263 260 263 258 255 260 264 267 267 267 270 271 272 268 262 254 242 234 229 227 226 225 236 244 247 251 254 258 263 268 273 275 276 273 265 262 257 249 249 248 243 244 248 250 248 247 249 249 248 244 241
309 318 302 276 266 259 250 246 253 262 263 259 258 261 262 260 253 256 270 273 267 259 255 258 255 248 242 234 231 231 230 230 232 241 244 245 249 253 258 265 271 275 277 276 270 261 256 247 244 249 245 242 250 254 252 248 246 247 247 246 239 234
297 305 293 277 271 268 263 256 255 260 260 257 258 261 263 260 251 251 263 266 251 233 231 242 240 233 229 228 237 239 236 237 241 244 243 244 246 250 256 264 268 271 275 277 269 257 247 237 238 243 238 239 252 253 249 245 243 242 243 241 233 229
286 287 280 275 273 273 270 260 254 255 257 256 257 257 254 250 244 237 240 244 243 235 232 236 233 226 226 234 245 245 242 245 244 240 240 241 242 246 253 257 261 264 270 275 266 250 238 230 227 229 233 234 240 244 243 241 239 239 239 235 228 228
275 273 271 270 268 269 269 259 250 251 253 253 250 246 239 233 225 225 237 248 247 241 237 236 232 226 228 238 245 245 247 247 241 237 238 240 240 242 246 249 253 258 264 269 261 240 226 222 219 220 230 233 232 237 240 239 235 233 233 228 225 226
272 268 267 265 262 262 261 251 245 247 248 246 244 240 234 228 224 231 243 247 241 238 236 234 234 233 235 240 245 248 250 249 244 240 238 237 234 235 241 245 249 254 257 260 253 235 220 219 223 221 225 231 231 232 234 234 231 228 228 227 226 228
273 271 270 269 266 262 253 244 239 240 242 242 242 241 239 237 237 241 244 242 236 230 230 234 236 236 236 237 241 245 247 247 243 237 232 228 227 230 238 244 247 248 247 247 247 240 229 225 229 227 226 226 220 219 224 227 229 227 228 231 231 231
271 271 272 272 272 267 255 244 237 236 238 241 243 243 244 243 243 243 240 234 226 223 223 223 220 217 217 221 226 233 240 244 238 229 225 224 227 233 238 243 244 243 240 240 245 246 240 231 226 229 234 228 213 211 220 226 227 225 225 230 231 232
266 265 265 266 270 269 262 253 244 240 240 241 243 244 244 243 240 235 230 225 222 223 218 209 204 204 207 211 217 223 229 236 233 229 229 230 234 237 239 241 241 242 240 238 240 242 238 229 226 239 246 238 225 219 224 229 228 225 225 228 230 231
261 259 258 259 264 267 267 262 253 246 241 240 241 240 239 237 233 228 225 224 222 220 214 206 204 208 211 213 219 226 227 230 231 232 236 239 240 242 242 240 240 243 241 237 237 236 232 227 231 244 247 242 237 230 229 233 232 228 228 230 232 235
259 258 256 257 261 265 268 263 251 242 237 235 236 237 237 234 229 226 224 222 217 209 201 199 201 208 215 217 222 231 233 232 233 233 238 242 243 244 243 242 243 246 244 238 237 239 238 236 239 247 248 245 244 239 236 239 238 234 232 234 237 242
256 256 258 261 263 265 263 255 246 240 236 233 233 234 235 233 229 227 224 218 212 204 198 200 206 214 223 227 230 235 238 239 239 238 240 243 246 247 245 244 244 246 245 242 242 244 245 244 246 250 252 250 247 244 243 245 245 242 242 243 244 247
252 254 258 263 265 265 261 255 248 242 238 235 233 232 231 230 229 227 223 216 210 207 206 211 219 228 236 241 243 245 245 245 245 244 244 244 245 247 248 246 244 244 245 243 244 246 247 246 247 250 254 252 247 246 247 248 248 248 249 250 251 253
252 253 257 261 263 264 262 258 253 248 244 240 236 234 230 229 228 226 221 215 213 215 219 225 231 237 241 245 248 249 249 247 246 245 245 245 245 246 248 249 246 245 245 244 242 245 248 250 250 251 253 251 248 247 249 251 253 252 253 255 257 259
253 253 255 258 261 264 264 260 256 252 248 244 240 235 232 230 226 220 216 214 218 223 229 234 237 240 241 242 245 246 247 246 245 245 245 245 245 245 246 247 246 245 245 244 241 243 247 251 254 255 254 251 250 251 253 255 256 257 259 263 266 266
251 252 254 257 262 266 266 261 256 251 248 245 241 236 234 228 219 213 212 215 223 230 235 239 241 242 242 240 240 240 242 244 244 244 245 245 245 244 243 244 245 248 250 248 246 246 249 253 258 259 255 252 253 256 258 257 258 261 266 269 269 268
248 251 254 256 261 265 266 263 259 254 252 249 243 240 236 225 215 211 213 222 233 237 240 241 241 240 240 239 237 233 233 237 241 243 243 242 241 241 240 242 245 248 250 249 248 249 250 253 255 255 254 252 254 258 260 260 262 265 268 268 268 268
250 252 253 255 258 262 265 264 262 259 257 255 249 244 238 227 218 217 226 242 247 243 240 238 235 232 232 234 234 231 227 229 235 240 242 240 237 235 235 238 242 243 243 242 246 249 250 251 250 253 257 256 256 259 260 263 265 266 267 267 268 269
252 251 250 251 254 259 263 263 262 260 258 257 252 244 236 231 227 231 242 250 249 242 236 231 227 224 225 228 231 231 228 226 230 236 240 241 238 235 234 236 240 243 243 244 248 252 254 256 257 259 263 264 264 262 261 262 264 265 266 268 269 271
247 245 244 247 253 258 262 261 258 256 255 255 252 247 243 241 241 242 243 241 237 231 225 222 220 218 221 226 229 229 226 225 228 232 239 244 242 238 236 238 242 246 248 250 253 256 259 261 261 262 264 267 268 265 262 263 264 266 268 270 271 272
237 237 239 243 251 256 259 257 252 251 253 254 253 251 247 245 241 236 234 232 226 218 214 213 212 212 216 223 227 227 224 224 225 227 234 242 242 238 236 237 241 245 248 251 252 255 257 257 259 260 261 265 267 267 267 267 268 270 271 271 270 271
231 232 236 241 247 252 254 253 251 251 251 252 251 249 246 243 236 231 230 227 217 210 209 209 207 209 215 222 228 227 223 223 224 222 223 227 229 228 227 229 233 238 242 246 248 249 252 256 259 259 259 261 264 267 268 268 269 271 270 270 269 269
225 228 236 241 245 247 249 249 247 244 241 240 240 240 241 236 230 228 227 219 211 212 213 212 215 220 224 227 231 231 227 225 225 222 220 220 223 228 231 234 237 240 243 247 250 253 258 263 266 265 264 263 263 265 266 267 268 268 268 268 268 269
222 228 235 241 244 245 244 242 237 230 228 229 231 233 236 230 225 227 227 220 217 221 223 223 227 231 234 235 236 235 230 228 228 228 226 226 229 235 240 243 246 247 248 250 252 255 259 264 267 268 268 268 266 266 267 267 267 266 266 267 267 269
224 231 240 245 245 243 240 238 234 230 231 235 240 246 248 242 234 232 232 228 225 226 228 231 232 234 240 244 244 240 233 229 231 233 235 236 237 239 243 246 249 251 252 252 253 255 258 262 266 268 269 270 269 269 268 268 267 267 267 267 267 268